Voltar ao catálogo

SL-8 DEB

AtivoUNKNOWN
NORAD 1480·DEBRIS·🇷🇺 Russia

Lançado Mar 15, 1965 de Baikonur Cosmodrome

Loading…

Próximas Passagens (próximas 24 horas)

TLE

AtualizadoSource: Space-Track

Época: Sep 14, 2026, 05:42 UTC

1 01480U 65020BE  26257.23788637  .00000035  00000-0  18572-3 0  9996
2 01480  56.0706  86.3587 0829937 208.6502 146.6327 12.64497365821385

Acompanhe SL-8 DEB em tempo real com AllMySat

Download on the App Store